Overview Statistics Trail Chart Weather Telemetry Raw packets
 

This is the latest recevied weather packets stored in our database for station/object EA5JMY-10. If no packets are shown the sender has not sent any weather packets the latest 10 day(s).

<< 21 22 23 24 25 26 27 >>
Time Temp. Humidity Pressure Rain* Wind** Luminosity Snow
1788120582 30° C 42% 1016.1 hPa - - - -
1788119682 29.44° C 30% 1015.8 hPa - - - -
1788118782 28.89° C 31% 1015.6 hPa - - - -
1788117882 29.44° C 30% 1015.3 hPa - - - -
1788116982 30.56° C 29% 1015.2 hPa - - - -
1788116082 31.11° C 27% 1015 hPa - - - -
1788115181 31.11° C 28% 1014.9 hPa - - - -
1788114281 32.78° C 27% 1014.8 hPa - - - -
1788113381 33.33° C 26% 1014.7 hPa - - - -
1788112481 33.89° C 24% 1014.6 hPa - - - -
1788111588 34.44° C 23% 1014.5 hPa - - - -
1788110680 35° C 22% 1014.5 hPa - - - -
1788109780 35.56° C 22% 1014.6 hPa - - - -
1788108880 35.56° C 22% 1014.5 hPa - - - -
1788107979 36.67° C 20% 1014.7 hPa - - - -
1788107079 37.22° C 20% 1014.8 hPa - - - -
1788106179 37.22° C 20% 1014.8 hPa - - - -
1788105279 37.78° C 19% 1015 hPa - - - -
1788104379 37.22° C 22% 1015 hPa - - - -
1788103479 37.22° C 24% 1015.1 hPa - - - -
1788102579 36.11° C 28% 1015.4 hPa - - - -
1788101679 35.56° C 28% 1015.6 hPa - - - -
1788100779 36.67° C 25% 1016 hPa - - - -
1788099878 36.67° C 25% 1016.1 hPa - - - -
1788098978 36.11° C 27% 1016.3 hPa - - - -

* Rain since midnight (hover to see other rain measurements)
** Current wind speed in m/s (hover to see current wind gust speed)